Weather History for Mitchell, SD

Change the Weather History Date:

Thursday, November 22, 2012

  Actual Average Record
Temperature  
Mean Temperature 40 °F 30 °F  
Max Temperature 54 °F 40 °F 72 °F (1974)
Min Temperature 26 °F 20 °F -7 °F (1929)
Degree Days  
Heating Degree Days 25 35  
Month to date heating degree days 563 628  
Since 1 July heating degree days 1231 1269  
Cooling Degree Days 0 0  
Month to date cooling degree days 0 0  
Year to date cooling degree days 1236 824  
Moisture  
Dew Point 30 °F    
Average Humidity 61    
Maximum Humidity 85    
Minimum Humidity 34    
Precipitation  
Precipitation T in 0.02 in 0.75 in (1963)
Month to date precipitation 0.08 0.64  
Year to date precipitation 21.16 20.93  
Snow  
Snow T in - 6.00 in (1909)
Month to date snowfall T  
Since 1 July snowfall 0.7  
Since 1 September snowfall 0.7  
Snow Depth 0.00 in    
Sea Level Pressure  
Sea Level Pressure 29.98 in    
Wind  
Wind Speed 19 mph (NW)    
Max Wind Speed 37 mph    
Max Gust Speed 46 mph    
Visibility 10 miles    
Events Rain    
T = Trace of Precipitation, MM = Missing Value Source: NWS Daily Summary

Daily Weather History Graph

Daily Weather History Graph

Search for Another Location

Airport:

Trip Planner

Search our weather history database for the weather conditions in past years. The results will help you decide how hot, cold, wet, or windy it might be!

Date:

Astronomy

Nov. 22, 2012 Rise Set
Actual Time 7:36 AM CST 5:00 PM CST
Civil Twilight 7:04 AM CST 5:32 PM CST
Nautical Twilight 6:29 AM CST 6:07 PM CST
Astronomical Twilight 5:54 AM CST 6:41 PM CST
Moon 1:55 PM CST (11/22) 1:47 AM CST (11/22)
Length of Visible Light 10h 27m
Length of Day
9h 24m
Waxing Gibbous, 71% of the Moon is Illuminated
Nov 22
Waxing Gibbous
Nov 28
Full
Dec 6
Last Quarter
Dec 13
New
Dec 19
First Quarter

Hourly Weather History & Observations

Time (CST) Temp. Windchill Dew Point Humidity Pressure Visibility Wind Dir Wind Speed Gust Speed Precip Events Conditions
12:53 AM 54.0 °F - 26.1 °F 34% 29.62 in 10.0 mi SSW 12.7 mph - N/A   Clear
1:53 AM 53.1 °F - 25.0 °F 34% 29.61 in 10.0 mi SW 11.5 mph - N/A   Clear
2:53 AM 51.1 °F - 25.0 °F 36% 29.63 in 10.0 mi SW 9.2 mph - N/A   Clear
3:53 AM 51.1 °F - 25.0 °F 36% 29.65 in 10.0 mi West 12.7 mph - N/A   Clear
4:53 AM 46.9 °F - 30.0 °F 52% 29.69 in 10.0 mi NW 9.2 mph - N/A   Clear
5:53 AM 50.0 °F - 35.1 °F 57% 29.74 in 10.0 mi NW 18.4 mph - N/A   Clear
6:53 AM 48.0 °F - 36.0 °F 63% 29.76 in 10.0 mi NW 16.1 mph 25.3 mph N/A   Clear
7:53 AM 44.1 °F 37.7 °F 35.1 °F 71% 29.81 in 10.0 mi NW 12.7 mph - N/A   Clear
8:53 AM 46.0 °F 38.5 °F 36.0 °F 68% 29.87 in 10.0 mi NNW 19.6 mph 28.8 mph N/A   Clear
9:46 AM 44.6 °F 35.3 °F 35.6 °F 71% 29.91 in 10.0 mi NW 26.5 mph 35.7 mph N/A   Mostly Cloudy
9:53 AM 45.0 °F 35.2 °F 35.1 °F 68% 29.91 in 10.0 mi NNW 29.9 mph 39.1 mph N/A   Mostly Cloudy
10:19 AM 44.6 °F 35.9 °F 33.8 °F 66% 29.93 in 10.0 mi NW 23.0 mph 35.7 mph N/A   Mostly Cloudy
10:48 AM 44.6 °F 35.5 °F 35.6 °F 71% 29.95 in 10.0 mi NW 25.3 mph 32.2 mph 0.00 in Rain Light Rain
10:53 AM 44.1 °F 35.2 °F 36.0 °F 73% 29.97 in 10.0 mi NW 23.0 mph 32.2 mph 0.00 in Rain Light Rain
11:26 AM 42.8 °F 33.3 °F 37.4 °F 81% 29.97 in 10.0 mi NW 24.2 mph 28.8 mph 0.00 in Rain Light Rain
11:53 AM 42.1 °F 34.5 °F 37.9 °F 85% 29.98 in 10.0 mi NW 15.0 mph 24.2 mph 0.00 in Rain Light Rain
12:26 PM 42.8 °F 34.5 °F 37.4 °F 81% 29.98 in 10.0 mi NW 18.4 mph - 0.00 in   Overcast
12:53 PM 43.0 °F 36.0 °F 37.9 °F 82% 30.01 in 10.0 mi NW 13.8 mph - 0.00 in   Overcast
1:50 PM 46.4 °F 38.3 °F 35.6 °F 66% 30.01 in 10.0 mi NW 23.0 mph 35.7 mph N/A   Mostly Cloudy
1:53 PM 45.0 °F 35.8 °F 36.0 °F 71% 30.03 in 10.0 mi NW 26.5 mph 34.5 mph N/A   Mostly Cloudy
2:53 PM 46.0 °F 37.8 °F 33.1 °F 61% 30.06 in 10.0 mi NW 23.0 mph 31.1 mph N/A   Scattered Clouds
3:53 PM 46.0 °F 37.8 °F 30.9 °F 56% 30.09 in 10.0 mi NW 23.0 mph 35.7 mph N/A   Scattered Clouds
4:53 PM 42.1 °F 33.3 °F 28.0 °F 58% 30.14 in 10.0 mi NNW 19.6 mph 26.5 mph N/A   Clear
5:53 PM 39.9 °F 30.8 °F 26.1 °F 58% 30.19 in 10.0 mi NNW 18.4 mph 29.9 mph N/A   Overcast
6:53 PM 34.0 °F 24.2 °F 23.0 °F 64% 30.22 in 10.0 mi NNW 15.0 mph - N/A   Mostly Cloudy
7:53 PM 33.1 °F 24.9 °F 21.9 °F 64% 30.24 in 10.0 mi NW 10.4 mph - N/A   Mostly Cloudy
8:53 PM 34.0 °F 20.8 °F 19.0 °F 54% 30.27 in 10.0 mi NNW 27.6 mph 40.3 mph N/A   Overcast
9:53 PM 30.0 °F 14.9 °F 12.9 °F 49% 30.32 in 10.0 mi NNW 29.9 mph 42.6 mph N/A   Overcast
10:53 PM 28.0 °F 12.8 °F 12.9 °F 53% 30.36 in 10.0 mi NNW 27.6 mph 41.4 mph N/A   Overcast
11:53 PM 26.1 °F 10.7 °F 14.0 °F 60% 30.40 in 10.0 mi NW 25.3 mph 36.8 mph 0.00 in   Overcast